,,PressureMeas_1m,,PRMeasQMR101_1,,RHStat155_1m_1,,SRMeasQMS101R_1m,,TAStat155_1m_1,,GenWind_1,,GenWind_1,
2018-12-05, 00:00:06,VALID,917.297,VALID,0.0,VALID,99.167,VALID,0.007,VALID,21.333,VALID,328.0,VALID,0.0,
2018-12-05, 00:01:06,VALID,917.279,VALID,0.0,VALID,99.175,VALID,0.002,VALID,21.304,VALID,350.0,VALID,0.0,
2018-12-05, 00:02:06,VALID,917.279,VALID,0.0,VALID,99.151,VALID,-0.011,VALID,21.25,VALID,335.0,VALID,0.0,
2018-12-05, 00:03:06,VALID,917.285,VALID,0.0,VALID,99.17,VALID,-0.019,VALID,21.21,VALID,213.0,VALID,0.0,
2018-12-05, 00:04:06,VALID,917.289,VALID,0.0,VALID,99.146,VALID,-0.021,VALID,21.169,VALID,99.0,VALID,0.0,
2018-12-05, 00:05:06,VALID,917.284,VALID,0.0,VALID,99.148,VALID,-0.007,VALID,21.158,VALID,57.0,VALID,0.0,
2018-12-05, 00:06:06,VALID,917.268,VALID,0.0,VALID,99.195,VALID,-0.019,VALID,21.208,VALID,54.0,VALID,0.0,
2018-12-05, 00:07:06,VALID,917.246,VALID,0.0,VALID,99.188,VALID,-0.014,VALID,21.227,VALID,54.0,VALID,0.0,
2018-12-05, 00:08:06,VALID,917.226,VALID,0.0,VALID,99.188,VALID,-0.019,VALID,21.255,VALID,40.0,VALID,0.0,
2018-12-05, 00:09:06,VALID,917.155,VALID,0.0,VALID,99.208,VALID,-0.013,VALID,21.286,VALID,359.0,VALID,0.0,
2018-12-05, 00:10:06,VALID,917.134,VALID,0.0,VALID,99.213,VALID,-0.012,VALID,21.304,VALID,357.0,VALID,0.0,
2018-12-05, 00:11:06,VALID,917.13,VALID,0.0,VALID,99.211,VALID,-0.017,VALID,21.34,VALID,360.0,VALID,0.0,
2018-12-05, 00:12:06,VALID,917.115,VALID,0.0,VALID,99.213,VALID,-0.008,VALID,21.317,VALID,22.0,VALID,0.0,
2018-12-05, 00:13:06,VALID,917.122,VALID,0.0,VALID,99.152,VALID,-0.019,VALID,21.257,VALID,17.0,VALID,0.0,
2018-12-05, 00:14:06,VALID,917.106,VALID,0.0,VALID,99.141,VALID,-0.02,VALID,21.211,VALID,13.0,VALID,0.0,
2018-12-05, 00:15:06,VALID,917.096,VALID,0.0,VALID,99.171,VALID,-0.025,VALID,21.219,VALID,12.0,VALID,0.0,
2018-12-05, 00:16:06,VALID,917.098,VALID,0.0,VALID,99.174,VALID,-0.0,VALID,21.183,VALID,11.0,VALID,0.0,
2018-12-05, 00:17:06,VALID,917.106,VALID,0.0,VALID,99.166,VALID,-0.026,VALID,21.143,VALID,11.0,VALID,0.0,
2018-12-05, 00:18:06,VALID,917.107,VALID,0.0,VALID,99.148,VALID,-0.017,VALID,21.092,VALID,11.0,VALID,0.0,
2018-12-05, 00:19:06,VALID,917.088,VALID,0.0,VALID,99.146,VALID,-0.011,VALID,21.086,VALID,11.0,VALID,0.0,
2018-12-05, 00:20:06,VALID,917.063,VALID,0.0,VALID,99.167,VALID,0.004,VALID,21.14,VALID,321.0,VALID,0.0,
2018-12-05, 00:21:06,VALID,917.021,VALID,0.0,VALID,99.156,VALID,-0.017,VALID,21.113,VALID,249.0,VALID,0.0,
2018-12-05, 00:22:06,VALID,917.016,VALID,0.0,VALID,99.154,VALID,-0.012,VALID,21.101,VALID,226.0,VALID,0.0,
2018-12-05, 00:23:06,VALID,916.992,VALID,0.0,VALID,99.175,VALID,-0.011,VALID,21.121,VALID,189.0,VALID,0.0,
2018-12-05, 00:24:06,VALID,917.015,VALID,0.0,VALID,99.141,VALID,-0.018,VALID,21.093,VALID,122.0,VALID,0.0,
2018-12-05, 00:25:06,VALID,916.983,VALID,0.0,VALID,99.151,VALID,-0.012,VALID,21.07,VALID,142.0,VALID,0.0,
2018-12-05, 00:26:06,VALID,916.993,VALID,0.0,VALID,99.145,VALID,-0.036,VALID,21.083,VALID,124.0,VALID,0.0,
2018-12-05, 00:27:06,VALID,917.008,VALID,0.0,VALID,99.157,VALID,-0.012,VALID,21.087,VALID,129.0,VALID,0.0,
2018-12-05, 00:28:06,VALID,917.017,VALID,0.0,VALID,99.15,VALID,-0.023,VALID,21.082,VALID,129.0,VALID,0.0,
2018-12-05, 00:29:06,VALID,917.023,VALID,0.0,VALID,99.157,VALID,-0.025,VALID,21.103,VALID,129.0,VALID,0.0,
2018-12-05, 00:30:06,VALID,917.028,VALID,0.0,VALID,99.173,VALID,-0.027,VALID,21.13,VALID,122.0,VALID,0.0,
2018-12-05, 00:31:06,VALID,917.016,VALID,0.0,VALID,99.166,VALID,-0.025,VALID,21.095,VALID,23.0,VALID,0.0,
2018-12-05, 00:32:06,VALID,917.014,VALID,0.0,VALID,99.153,VALID,-0.028,VALID,21.091,VALID,45.0,VALID,0.0,
2018-12-05, 00:33:06,VALID,916.998,VALID,0.0,VALID,99.137,VALID,-0.018,VALID,21.074,VALID,75.0,VALID,0.0,
2018-12-05, 00:34:06,VALID,916.974,VALID,0.0,VALID,99.146,VALID,-0.027,VALID,21.052,VALID,182.0,VALID,0.0,
2018-12-05, 00:35:06,VALID,916.924,VALID,0.0,VALID,99.153,VALID,-0.011,VALID,20.996,VALID,223.0,VALID,0.0,
2018-12-05, 00:36:06,VALID,916.938,VALID,0.0,VALID,99.152,VALID,0.001,VALID,21.027,VALID,200.0,VALID,0.0,
2018-12-05, 00:37:06,VALID,916.942,VALID,0.0,VALID,99.162,VALID,0.005,VALID,21.056,VALID,174.0,VALID,0.0,
2018-12-05, 00:38:06,VALID,916.953,VALID,0.0,VALID,99.189,VALID,-0.001,VALID,21.125,VALID,174.0,VALID,0.0,
2018-12-05, 00:39:06,VALID,916.966,VALID,0.0,VALID,99.17,VALID,0.002,VALID,21.072,VALID,193.0,VALID,0.0,
2018-12-05, 00:40:06,VALID,916.978,VALID,0.0,VALID,99.159,VALID,0.009,VALID,21.005,VALID,194.0,VALID,0.0,
2018-12-05, 00:41:06,VALID,916.986,VALID,0.0,VALID,99.096,VALID,-0.003,VALID,20.893,VALID,188.0,VALID,0.0,
2018-12-05, 00:42:06,VALID,916.982,VALID,0.0,VALID,99.031,VALID,-0.008,VALID,20.703,VALID,190.0,VALID,0.0,
2018-12-05, 00:43:06,VALID,917.001,VALID,0.0,VALID,98.966,VALID,-0.008,VALID,20.59,VALID,174.0,VALID,0.0,
2018-12-05, 00:44:06,VALID,916.991,VALID,0.0,VALID,98.911,VALID,-0.016,VALID,20.463,VALID,175.0,VALID,0.0,
2018-12-05, 00:45:06,VALID,917.025,VALID,0.0,VALID,98.916,VALID,-0.023,VALID,20.38,VALID,175.0,VALID,0.0,
2018-12-05, 00:46:06,VALID,917.037,VALID,0.0,VALID,98.906,VALID,-0.021,VALID,20.317,INVALID,360.0,VALID,0.0,
2018-12-05, 00:47:06,VALID,917.024,VALID,0.0,VALID,98.923,VALID,-0.012,VALID,20.29,INVALID,360.0,VALID,0.0,
2018-12-05, 00:48:06,VALID,917.067,VALID,0.0,VALID,98.954,VALID,0.001,VALID,20.282,INVALID,360.0,VALID,0.0,
2018-12-05, 00:49:06,VALID,917.107,VALID,0.0,VALID,98.963,VALID,0.001,VALID,20.274,INVALID,360.0,VALID,0.0,
2018-12-05, 00:50:06,VALID,917.113,VALID,0.0,VALID,99.01,VALID,-0.004,VALID,20.271,INVALID,360.0,VALID,0.0,
2018-12-05, 00:51:06,VALID,917.134,VALID,0.0,VALID,99.0,VALID,-0.004,VALID,20.255,INVALID,360.0,VALID,0.0,
2018-12-05, 00:52:06,VALID,917.145,VALID,0.0,VALID,98.991,VALID,0.006,VALID,20.231,INVALID,360.0,VALID,0.0,
2018-12-05, 00:53:06,VALID,917.143,VALID,0.0,VALID,98.992,VALID,-0.005,VALID,20.207,INVALID,360.0,VALID,0.0,
2018-12-05, 00:54:06,VALID,917.139,VALID,0.0,VALID,99.015,VALID,0.005,VALID,20.206,VALID,119.0,VALID,0.0,
2018-12-05, 00:55:06,VALID,917.124,VALID,0.0,VALID,99.01,VALID,-0.008,VALID,20.203,VALID,126.0,VALID,0.0,
2018-12-05, 00:56:06,VALID,917.117,VALID,0.0,VALID,99.046,VALID,-0.018,VALID,20.234,VALID,107.0,VALID,0.0,
2018-12-05, 00:57:06,VALID,917.125,VALID,0.0,VALID,99.036,VALID,0.001,VALID,20.211,VALID,98.0,VALID,0.0,
2018-12-05, 00:58:06,VALID,917.088,VALID,0.0,VALID,99.035,VALID,-0.003,VALID,20.215,VALID,88.0,VALID,0.0,
2018-12-05, 00:59:06,VALID,917.081,VALID,0.0,VALID,99.048,VALID,-0.0,VALID,20.242,VALID,73.0,VALID,0.0,
2018-12-05, 01:00:06,VALID,917.068,VALID,0.0,VALID,99.028,VALID,-0.007,VALID,20.251,VALID,69.0,VALID,0.0,
2018-12-05, 01:01:06,VALID,917.043,VALID,0.0,VALID,99.049,VALID,0.002,VALID,20.261,VALID,63.0,VALID,0.0,
2018-12-05, 01:02:06,VALID,917.051,VALID,0.0,VALID,99.015,VALID,-0.004,VALID,20.265,VALID,64.0,VALID,0.0,
2018-12-05, 01:03:06,VALID,917.047,VALID,0.0,VALID,99.022,VALID,0.009,VALID,20.26,VALID,78.0,VALID,0.0,
2018-12-05, 01:04:06,VALID,917.023,VALID,0.0,VALID,98.998,VALID,0.003,VALID,20.259,VALID,88.0,VALID,0.0,
2018-12-05, 01:05:06,VALID,917.019,VALID,0.0,VALID,99.039,VALID,0.009,VALID,20.303,VALID,59.0,VALID,0.0,
2018-12-05, 01:06:06,VALID,917.019,VALID,0.0,VALID,99.034,VALID,0.004,VALID,20.325,VALID,65.0,VALID,0.0,
2018-12-05, 01:07:06,VALID,916.984,VALID,0.0,VALID,99.022,VALID,-0.006,VALID,20.331,VALID,65.0,VALID,0.0,
2018-12-05, 01:08:06,VALID,916.951,VALID,0.0,VALID,99.014,VALID,-0.004,VALID,20.334,VALID,65.0,VALID,0.0,
2018-12-05, 01:09:06,VALID,916.935,VALID,0.0,VALID,99.057,VALID,-0.007,VALID,20.378,VALID,96.0,VALID,0.0,
2018-12-05, 01:10:06,VALID,916.934,VALID,0.0,VALID,99.069,VALID,0.01,VALID,20.383,INVALID,360.0,VALID,0.0,
2018-12-05, 01:11:06,VALID,916.914,VALID,0.0,VALID,99.055,VALID,0.024,VALID,20.4,INVALID,360.0,VALID,0.0,
2018-12-05, 01:12:06,VALID,916.925,VALID,0.0,VALID,99.062,VALID,0.007,VALID,20.38,INVALID,360.0,VALID,0.0,
2018-12-05, 01:13:06,VALID,916.943,VALID,0.0,VALID,99.025,VALID,0.002,VALID,20.344,VALID,129.0,VALID,0.0,
2018-12-05, 01:14:06,VALID,916.961,VALID,0.0,VALID,99.034,VALID,0.024,VALID,20.341,VALID,127.0,VALID,0.0,
2018-12-05, 01:15:06,VALID,916.958,VALID,0.0,VALID,99.04,VALID,0.03,VALID,20.351,VALID,122.0,VALID,0.0,
2018-12-05, 01:16:06,VALID,916.965,VALID,0.0,VALID,99.051,VALID,0.029,VALID,20.359,VALID,127.0,VALID,0.0,
2018-12-05, 01:17:06,VALID,916.961,VALID,0.0,VALID,99.044,VALID,0.002,VALID,20.35,VALID,120.0,VALID,0.0,
2018-12-05, 01:18:06,VALID,916.961,VALID,0.0,VALID,99.063,VALID,0.009,VALID,20.365,VALID,121.0,VALID,0.0,
2018-12-05, 01:19:06,VALID,916.96,VALID,0.0,VALID,99.046,VALID,-0.002,VALID,20.327,VALID,125.0,VALID,0.0,
2018-12-05, 01:20:06,VALID,916.954,VALID,0.0,VALID,99.047,VALID,0.003,VALID,20.307,VALID,131.0,VALID,0.0,
2018-12-05, 01:21:06,VALID,916.952,VALID,0.0,VALID,98.98,VALID,-0.001,VALID,20.229,VALID,123.0,VALID,0.0,
2018-12-05, 01:22:06,VALID,916.956,VALID,0.0,VALID,98.954,VALID,0.007,VALID,20.218,VALID,124.0,VALID,0.0,
2018-12-05, 01:23:06,VALID,916.962,VALID,0.0,VALID,98.954,VALID,0.008,VALID,20.215,VALID,127.0,VALID,0.0,
2018-12-05, 01:24:06,VALID,916.95,VALID,0.0,VALID,98.984,VALID,0.014,VALID,20.25,VALID,124.0,VALID,0.0,
2018-12-05, 01:25:06,VALID,916.94,VALID,0.0,VALID,99.008,VALID,0.003,VALID,20.246,VALID,114.0,VALID,0.0,
2018-12-05, 01:26:06,VALID,916.915,VALID,0.0,VALID,98.987,VALID,0.014,VALID,20.227,VALID,102.0,VALID,0.0,
2018-12-05, 01:27:06,VALID,916.895,VALID,0.0,VALID,98.943,VALID,-0.009,VALID,20.17,VALID,107.0,VALID,0.0,
2018-12-05, 01:28:06,VALID,916.87,VALID,0.0,VALID,98.837,VALID,0.006,VALID,20.111,VALID,104.0,VALID,0.0,
2018-12-05, 01:29:06,VALID,916.836,VALID,0.0,VALID,98.779,VALID,0.006,VALID,20.1,VALID,109.0,VALID,0.0,
2018-12-05, 01:30:06,VALID,916.797,VALID,0.0,VALID,98.597,VALID,0.002,VALID,20.049,VALID,99.0,VALID,0.0,
2018-12-05, 01:31:06,VALID,916.773,VALID,0.0,VALID,98.401,VALID,-0.009,VALID,20.037,VALID,80.0,VALID,0.0,
2018-12-05, 01:32:06,VALID,916.726,VALID,0.0,VALID,98.307,VALID,0.016,VALID,20.058,VALID,80.0,VALID,0.0,
2018-12-05, 01:33:06,VALID,916.687,VALID,0.0,VALID,98.226,VALID,0.022,VALID,20.061,VALID,94.0,VALID,0.0,
2018-12-05, 01:34:06,VALID,916.657,VALID,0.0,VALID,98.151,VALID,0.015,VALID,20.052,VALID,87.0,VALID,0.0,
2018-12-05, 01:35:06,VALID,916.62,VALID,0.0,VALID,98.064,VALID,-0.001,VALID,20.045,VALID,98.0,VALID,0.0,
2018-12-05, 01:36:06,VALID,916.596,VALID,0.0,VALID,98.103,VALID,0.01,VALID,20.064,VALID,101.0,VALID,0.0,
2018-12-05, 01:37:06,VALID,916.597,VALID,0.0,VALID,98.13,VALID,0.019,VALID,20.062,VALID,99.0,VALID,0.0,
2018-12-05, 01:38:06,VALID,916.58,VALID,0.0,VALID,98.207,VALID,0.016,VALID,20.074,VALID,81.0,VALID,0.0,
2018-12-05, 01:39:06,VALID,916.574,VALID,0.0,VALID,98.156,VALID,-0.013,VALID,20.061,VALID,89.0,VALID,0.0,
2018-12-05, 01:40:06,VALID,916.565,VALID,0.0,VALID,98.093,VALID,0.008,VALID,20.036,VALID,98.0,VALID,0.0,
2018-12-05, 01:41:06,VALID,916.516,VALID,0.0,VALID,98.108,VALID,0.019,VALID,20.036,INVALID,360.0,VALID,0.0,
2018-12-05, 01:42:06,VALID,916.503,VALID,0.0,VALID,98.194,VALID,0.012,VALID,20.05,INVALID,360.0,VALID,0.0,
2018-12-05, 01:43:06,VALID,916.459,VALID,0.0,VALID,98.26,VALID,0.014,VALID,20.06,INVALID,360.0,VALID,0.0,
2018-12-05, 01:44:06,VALID,916.432,VALID,0.0,VALID,98.161,VALID,0.001,VALID,20.014,INVALID,360.0,VALID,0.0,
2018-12-05, 01:45:06,VALID,916.41,VALID,0.0,VALID,98.2,VALID,0.006,VALID,20.015,INVALID,360.0,VALID,0.0,
2018-12-05, 01:46:06,VALID,916.393,VALID,0.0,VALID,98.177,VALID,-0.004,VALID,19.997,INVALID,360.0,VALID,0.0,
2018-12-05, 01:47:06,VALID,916.372,VALID,0.0,VALID,98.174,VALID,0.003,VALID,19.977,INVALID,360.0,VALID,0.0,
2018-12-05, 01:48:06,VALID,916.339,VALID,0.0,VALID,98.203,VALID,0.01,VALID,19.983,INVALID,360.0,VALID,0.0,
2018-12-05, 01:49:06,VALID,916.316,VALID,0.0,VALID,98.337,VALID,-0.011,VALID,20.013,INVALID,360.0,VALID,0.0,
2018-12-05, 01:50:06,VALID,916.317,VALID,0.0,VALID,98.391,VALID,-0.003,VALID,20.031,INVALID,360.0,VALID,0.0,
2018-12-05, 01:51:06,VALID,916.268,VALID,0.0,VALID,98.458,VALID,0.002,VALID,20.038,INVALID,360.0,VALID,0.0,
2018-12-05, 01:52:06,VALID,916.256,VALID,0.0,VALID,98.27,VALID,0.006,VALID,19.976,INVALID,360.0,VALID,0.0,
2018-12-05, 01:53:06,VALID,916.232,VALID,0.0,VALID,98.259,VALID,0.02,VALID,19.991,INVALID,360.0,VALID,0.0,
2018-12-05, 01:54:06,VALID,916.215,VALID,0.0,VALID,98.293,VALID,0.01,VALID,19.997,INVALID,360.0,VALID,0.0,
2018-12-05, 01:55:06,VALID,916.198,VALID,0.0,VALID,98.209,VALID,0.006,VALID,19.971,INVALID,360.0,VALID,0.0,
2018-12-05, 01:56:06,VALID,916.168,VALID,0.0,VALID,98.122,VALID,-0.005,VALID,19.95,INVALID,360.0,VALID,0.0,
2018-12-05, 01:57:06,VALID,916.126,VALID,0.0,VALID,98.184,VALID,-0.001,VALID,19.963,INVALID,360.0,VALID,0.0,
2018-12-05, 01:58:06,VALID,916.105,VALID,0.0,VALID,98.256,VALID,-0.014,VALID,19.965,INVALID,360.0,VALID,0.0,
2018-12-05, 01:59:06,VALID,916.065,VALID,0.0,VALID,98.369,VALID,-0.025,VALID,19.965,INVALID,360.0,VALID,0.0,
2018-12-05, 02:00:06,VALID,916.041,VALID,0.0,VALID,98.422,VALID,-0.0,VALID,19.945,INVALID,360.0,VALID,0.0,
2018-12-05, 02:01:06,VALID,916.006,VALID,0.0,VALID,98.473,VALID,0.003,VALID,19.933,INVALID,360.0,VALID,0.0,
2018-12-05, 02:02:06,VALID,915.967,VALID,0.0,VALID,98.534,VALID,-0.02,VALID,19.926,INVALID,360.0,VALID,0.0,
2018-12-05, 02:03:06,VALID,915.96,VALID,0.0,VALID,98.553,VALID,-0.019,VALID,19.912,INVALID,360.0,VALID,0.0,
2018-12-05, 02:04:06,VALID,915.941,VALID,0.0,VALID,98.621,VALID,-0.007,VALID,19.948,INVALID,360.0,VALID,0.0,
2018-12-05, 02:05:06,VALID,915.917,VALID,0.0,VALID,98.659,VALID,-0.016,VALID,19.94,INVALID,360.0,VALID,0.0,
2018-12-05, 02:06:06,VALID,915.904,VALID,0.0,VALID,98.709,VALID,-0.009,VALID,19.944,INVALID,360.0,VALID,0.0,
2018-12-05, 02:07:06,VALID,915.905,VALID,0.0,VALID,98.681,VALID,-0.023,VALID,19.928,INVALID,360.0,VALID,0.0,
2018-12-05, 02:08:06,VALID,915.894,VALID,0.0,VALID,98.704,VALID,-0.007,VALID,19.93,INVALID,360.0,VALID,0.0,
2018-12-05, 02:09:06,VALID,915.89,VALID,0.0,VALID,98.713,VALID,-0.014,VALID,19.928,INVALID,360.0,VALID,0.0,
2018-12-05, 02:10:06,VALID,915.899,VALID,0.0,VALID,98.722,VALID,0.007,VALID,19.926,INVALID,360.0,VALID,0.0,
2018-12-05, 02:11:06,VALID,915.893,VALID,0.0,VALID,98.752,VALID,-0.027,VALID,19.938,INVALID,360.0,VALID,0.0,
2018-12-05, 02:12:06,VALID,915.877,VALID,0.0,VALID,98.793,VALID,-0.015,VALID,19.957,INVALID,360.0,VALID,0.0,
2018-12-05, 02:13:06,VALID,915.888,VALID,0.0,VALID,98.8,VALID,-0.007,VALID,19.952,INVALID,360.0,VALID,0.0,
2018-12-05, 02:14:06,VALID,915.899,VALID,0.0,VALID,98.78,VALID,-0.01,VALID,19.94,INVALID,360.0,VALID,0.0,
2018-12-05, 02:15:07,VALID,915.904,VALID,0.0,VALID,98.808,VALID,-0.013,VALID,19.955,INVALID,360.0,VALID,0.0,
2018-12-05, 02:16:07,VALID,915.884,VALID,0.0,VALID,98.797,VALID,-0.011,VALID,19.935,INVALID,360.0,VALID,0.0,
2018-12-05, 02:17:07,VALID,915.87,VALID,0.0,VALID,98.811,VALID,0.014,VALID,19.948,INVALID,360.0,VALID,0.0,
2018-12-05, 02:18:07,VALID,915.841,VALID,0.0,VALID,98.841,VALID,-0.002,VALID,19.958,INVALID,360.0,VALID,0.0,
2018-12-05, 02:19:07,VALID,915.835,VALID,0.0,VALID,98.83,VALID,-0.005,VALID,19.959,INVALID,360.0,VALID,0.0,
2018-12-05, 02:20:07,VALID,915.846,VALID,0.0,VALID,98.823,VALID,-0.006,VALID,19.957,INVALID,360.0,VALID,0.0,
2018-12-05, 02:21:07,VALID,915.844,VALID,0.0,VALID,98.806,VALID,-0.022,VALID,19.951,INVALID,360.0,VALID,0.0,
2018-12-05, 02:22:07,VALID,915.834,VALID,0.0,VALID,98.799,VALID,-0.024,VALID,19.939,INVALID,360.0,VALID,0.0,
2018-12-05, 02:23:07,VALID,915.828,VALID,0.0,VALID,98.797,VALID,-0.021,VALID,19.936,INVALID,360.0,VALID,0.0,
2018-12-05, 02:24:07,VALID,915.818,VALID,0.0,VALID,98.815,VALID,-0.009,VALID,19.941,INVALID,360.0,VALID,0.0,
2018-12-05, 02:25:07,VALID,915.811,VALID,0.0,VALID,98.794,VALID,-0.003,VALID,19.929,INVALID,360.0,VALID,0.0,
2018-12-05, 02:26:07,VALID,915.808,VALID,0.0,VALID,98.826,VALID,-0.028,VALID,19.942,INVALID,360.0,VALID,0.0,
2018-12-05, 02:27:07,VALID,915.777,VALID,0.0,VALID,98.827,VALID,-0.023,VALID,19.93,INVALID,360.0,VALID,0.0,
2018-12-05, 02:28:07,VALID,915.78,VALID,0.0,VALID,98.817,VALID,-0.008,VALID,19.916,INVALID,360.0,VALID,0.0,
2018-12-05, 02:29:07,VALID,915.743,VALID,0.0,VALID,98.851,VALID,-0.015,VALID,19.927,INVALID,360.0,VALID,0.0,
2018-12-05, 02:30:07,VALID,915.747,VALID,0.0,VALID,98.858,VALID,-0.015,VALID,19.917,INVALID,360.0,VALID,0.0,
2018-12-05, 02:31:07,VALID,915.722,VALID,0.0,VALID,98.817,VALID,-0.03,VALID,19.891,INVALID,360.0,VALID,0.0,
2018-12-05, 02:32:07,VALID,915.677,VALID,0.0,VALID,98.868,VALID,-0.029,VALID,19.877,INVALID,360.0,VALID,0.0,
2018-12-05, 02:33:07,VALID,915.662,VALID,0.0,VALID,98.822,VALID,-0.022,VALID,19.862,INVALID,360.0,VALID,0.0,
2018-12-05, 02:34:07,VALID,915.626,VALID,0.0,VALID,98.819,VALID,-0.017,VALID,19.864,INVALID,360.0,VALID,0.0,
2018-12-05, 02:35:07,VALID,915.593,VALID,0.0,VALID,98.801,VALID,-0.007,VALID,19.871,INVALID,360.0,VALID,0.0,
2018-12-05, 02:36:07,VALID,915.567,VALID,0.0,VALID,98.731,VALID,-0.032,VALID,19.859,INVALID,360.0,VALID,0.0,
2018-12-05, 02:37:07,VALID,915.581,VALID,0.0,VALID,98.69,VALID,-0.016,VALID,19.848,INVALID,360.0,VALID,0.0,
2018-12-05, 02:38:07,VALID,915.591,VALID,0.0,VALID,98.638,VALID,-0.013,VALID,19.852,INVALID,360.0,VALID,0.0,
2018-12-05, 02:39:07,VALID,915.583,VALID,0.0,VALID,98.61,VALID,-0.014,VALID,19.859,INVALID,360.0,VALID,0.0,
2018-12-05, 02:40:07,VALID,915.584,VALID,0.0,VALID,98.586,VALID,-0.019,VALID,19.86,INVALID,360.0,VALID,0.0,
2018-12-05, 02:41:07,VALID,915.584,VALID,0.0,VALID,98.528,VALID,-0.002,VALID,19.845,INVALID,360.0,VALID,0.0,
2018-12-05, 02:42:07,VALID,915.573,VALID,0.0,VALID,98.488,VALID,-0.01,VALID,19.835,INVALID,360.0,VALID,0.0,
2018-12-05, 02:43:07,VALID,915.583,VALID,0.0,VALID,98.413,VALID,-0.007,VALID,19.837,INVALID,360.0,VALID,0.0,
2018-12-05, 02:44:07,VALID,915.578,VALID,0.0,VALID,98.392,VALID,-0.006,VALID,19.842,INVALID,360.0,VALID,0.0,
2018-12-05, 02:45:07,VALID,915.562,VALID,0.0,VALID,98.382,VALID,0.003,VALID,19.848,INVALID,360.0,VALID,0.0,
2018-12-05, 02:46:07,VALID,915.561,VALID,0.0,VALID,98.363,VALID,-0.003,VALID,19.846,INVALID,360.0,VALID,0.0,
2018-12-05, 02:47:07,VALID,915.536,VALID,0.0,VALID,98.357,VALID,-0.001,VALID,19.837,INVALID,360.0,VALID,0.0,
2018-12-05, 02:48:07,VALID,915.52,VALID,0.0,VALID,98.411,VALID,-0.005,VALID,19.832,INVALID,360.0,VALID,0.0,
2018-12-05, 02:49:07,VALID,915.522,VALID,0.0,VALID,98.419,VALID,-0.02,VALID,19.828,INVALID,360.0,VALID,0.0,
2018-12-05, 02:50:07,VALID,915.526,VALID,0.0,VALID,98.439,VALID,-0.012,VALID,19.827,INVALID,360.0,VALID,0.0,
2018-12-05, 02:51:07,VALID,915.542,VALID,0.0,VALID,98.474,VALID,-0.002,VALID,19.824,INVALID,360.0,VALID,0.0,
2018-12-05, 02:52:07,VALID,915.506,VALID,0.0,VALID,98.517,VALID,-0.02,VALID,19.821,INVALID,360.0,VALID,0.0,
2018-12-05, 02:53:07,VALID,915.519,VALID,0.0,VALID,98.521,VALID,-0.022,VALID,19.822,INVALID,360.0,VALID,0.0,
2018-12-05, 02:54:07,VALID,915.511,VALID,0.0,VALID,98.485,VALID,-0.016,VALID,19.829,INVALID,360.0,VALID,0.0,
2018-12-05, 02:55:07,VALID,915.526,VALID,0.0,VALID,98.519,VALID,-0.009,VALID,19.817,INVALID,360.0,VALID,0.0,
2018-12-05, 02:56:07,VALID,915.523,VALID,0.0,VALID,98.506,VALID,0.008,VALID,19.811,INVALID,360.0,VALID,0.0,
2018-12-05, 02:57:07,VALID,915.528,VALID,0.0,VALID,98.531,VALID,0.004,VALID,19.809,INVALID,360.0,VALID,0.0,
2018-12-05, 02:58:07,VALID,915.537,VALID,0.0,VALID,98.569,VALID,0.0,VALID,19.801,INVALID,360.0,VALID,0.0,
2018-12-05, 02:59:07,VALID,915.546,VALID,0.0,VALID,98.582,VALID,0.009,VALID,19.798,INVALID,360.0,VALID,0.0,
2018-12-05, 03:00:07,VALID,915.548,VALID,0.0,VALID,98.609,VALID,0.005,VALID,19.793,INVALID,360.0,VALID,0.0,
2018-12-05, 03:01:07,VALID,915.561,VALID,0.0,VALID,98.658,VALID,-0.011,VALID,19.794,INVALID,360.0,VALID,0.0,
2018-12-05, 03:02:07,VALID,915.582,VALID,0.0,VALID,98.689,VALID,-0.005,VALID,19.788,INVALID,360.0,VALID,0.0,
2018-12-05, 03:03:07,VALID,915.591,VALID,0.0,VALID,98.748,VALID,0.007,VALID,19.789,INVALID,360.0,VALID,0.0,
2018-12-05, 03:04:07,VALID,915.587,VALID,0.0,VALID,98.77,VALID,-0.014,VALID,19.79,INVALID,360.0,VALID,0.0,
2018-12-05, 03:05:07,VALID,915.579,VALID,0.0,VALID,98.797,VALID,-0.004,VALID,19.785,INVALID,360.0,VALID,0.0,
2018-12-05, 03:06:07,VALID,915.587,VALID,0.0,VALID,98.812,VALID,-0.006,VALID,19.788,INVALID,360.0,VALID,0.0,
2018-12-05, 03:07:07,VALID,915.577,VALID,0.0,VALID,98.831,VALID,0.01,VALID,19.8,INVALID,360.0,VALID,0.0,
2018-12-05, 03:08:07,VALID,915.564,VALID,0.0,VALID,98.831,VALID,-0.007,VALID,19.807,INVALID,360.0,VALID,0.0,
2018-12-05, 03:09:07,VALID,915.563,VALID,0.0,VALID,98.851,VALID,0.014,VALID,19.8,INVALID,360.0,VALID,0.0,
2018-12-05, 03:10:07,VALID,915.546,VALID,0.0,VALID,98.873,VALID,-0.007,VALID,19.796,INVALID,360.0,VALID,0.0,
2018-12-05, 03:11:07,VALID,915.532,VALID,0.0,VALID,98.869,VALID,-0.028,VALID,19.787,INVALID,360.0,VALID,0.0,
2018-12-05, 03:12:07,VALID,915.499,VALID,0.0,VALID,98.858,VALID,0.003,VALID,19.786,INVALID,360.0,VALID,0.0,
2018-12-05, 03:13:07,VALID,915.507,VALID,0.0,VALID,98.846,VALID,-0.013,VALID,19.776,INVALID,360.0,VALID,0.0,
2018-12-05, 03:14:07,VALID,915.469,VALID,0.0,VALID,98.778,VALID,-0.001,VALID,19.769,INVALID,360.0,VALID,0.0,
2018-12-05, 03:15:07,VALID,915.462,VALID,0.0,VALID,98.652,VALID,0.002,VALID,19.763,INVALID,360.0,VALID,0.0,
2018-12-05, 03:16:07,VALID,915.421,VALID,0.0,VALID,98.55,VALID,0.002,VALID,19.775,INVALID,360.0,VALID,0.0,
2018-12-05, 03:17:07,VALID,915.396,VALID,0.0,VALID,98.546,VALID,-0.008,VALID,19.806,INVALID,360.0,VALID,0.0,
2018-12-05, 03:18:07,VALID,915.41,VALID,0.0,VALID,98.507,VALID,-0.012,VALID,19.799,INVALID,360.0,VALID,0.0,
2018-12-05, 03:19:07,VALID,915.392,VALID,0.0,VALID,98.408,VALID,-0.006,VALID,19.766,INVALID,360.0,VALID,0.0,
2018-12-05, 03:20:07,VALID,915.372,VALID,0.0,VALID,98.302,VALID,-0.02,VALID,19.762,INVALID,360.0,VALID,0.0,
2018-12-05, 03:21:07,VALID,915.364,VALID,0.0,VALID,98.198,VALID,-0.01,VALID,19.779,INVALID,360.0,VALID,0.0,
2018-12-05, 03:22:07,VALID,915.366,VALID,0.0,VALID,98.118,VALID,-0.004,VALID,19.791,INVALID,360.0,VALID,0.0,
2018-12-05, 03:23:07,VALID,915.332,VALID,0.0,VALID,97.996,VALID,-0.009,VALID,19.792,INVALID,360.0,VALID,0.0,
2018-12-05, 03:24:07,VALID,915.323,VALID,0.0,VALID,97.908,VALID,-0.0,VALID,19.811,INVALID,360.0,VALID,0.0,
2018-12-05, 03:25:07,VALID,915.31,VALID,0.0,VALID,97.852,VALID,-0.003,VALID,19.816,INVALID,360.0,VALID,0.0,
2018-12-05, 03:26:07,VALID,915.283,VALID,0.0,VALID,97.766,VALID,-0.031,VALID,19.786,INVALID,360.0,VALID,0.0,
2018-12-05, 03:27:07,VALID,915.272,VALID,0.0,VALID,97.731,VALID,-0.023,VALID,19.798,INVALID,360.0,VALID,0.0,
2018-12-05, 03:28:07,VALID,915.243,VALID,0.0,VALID,97.684,VALID,0.008,VALID,19.79,INVALID,360.0,VALID,0.0,
2018-12-05, 03:29:07,VALID,915.234,VALID,0.0,VALID,97.627,VALID,-0.027,VALID,19.775,INVALID,360.0,VALID,0.0,
2018-12-05, 03:30:07,VALID,915.223,VALID,0.0,VALID,97.587,VALID,-0.022,VALID,19.762,INVALID,360.0,VALID,0.0,
2018-12-05, 03:31:07,VALID,915.213,VALID,0.0,VALID,97.597,VALID,-0.02,VALID,19.744,INVALID,360.0,VALID,0.0,
2018-12-05, 03:32:07,VALID,915.205,VALID,0.0,VALID,97.58,VALID,-0.027,VALID,19.737,INVALID,360.0,VALID,0.0,
2018-12-05, 03:33:07,VALID,915.205,VALID,0.0,VALID,97.613,VALID,-0.025,VALID,19.721,INVALID,360.0,VALID,0.0,
2018-12-05, 03:34:07,VALID,915.2,VALID,0.0,VALID,97.64,VALID,-0.02,VALID,19.72,INVALID,360.0,VALID,0.0,
2018-12-05, 03:35:07,VALID,915.187,VALID,0.0,VALID,97.655,VALID,-0.022,VALID,19.724,INVALID,360.0,VALID,0.0,
2018-12-05, 03:36:07,VALID,915.168,VALID,0.0,VALID,97.646,VALID,-0.026,VALID,19.73,INVALID,360.0,VALID,0.0,
2018-12-05, 03:37:07,VALID,915.154,VALID,0.0,VALID,97.613,VALID,-0.02,VALID,19.726,INVALID,360.0,VALID,0.0,
2018-12-05, 03:38:07,VALID,915.141,VALID,0.0,VALID,97.646,VALID,-0.011,VALID,19.744,INVALID,360.0,VALID,0.0,
2018-12-05, 03:39:07,VALID,915.124,VALID,0.0,VALID,97.681,VALID,-0.024,VALID,19.757,INVALID,360.0,VALID,0.0,